Humidity-temperature Sensor

Selected Measurement Type: Air Temperature

 
Air Temperature [°C]     6 entries per hour
Showing data from 8/23/2018 (00:00:00 Z) to 8/20/2018 (00:01:00 Z)
Previous Next [ Day | 3-Days | 7-Days ]
First Last
Prev [ Day | 3-Days | 7-Days ] Next
First Last

Start Time:     :
End Time:     :     
Time (in GMT) :00 :50 :40 :30 :20 :10
Previous Next [ Day | 3-Days | 7-Days ]
First Last
Prev [ Day | 3-Days | 7-Days ] Next
First Last


123 => good data
MM => data is determined as missing
-- => data not received/configured
Back to Top Back to Top
8/23/2018 00:00 to 23:10 22.93 22.94 22.92 22.80 22.87 22.83
8/22/2018 23:00 to 22:10 22.84 22.95 22.81 22.71 22.80 22.90
8/22/2018 22:00 to 21:10 22.85 22.79 22.86 22.94 22.89 22.89
8/22/2018 21:00 to 20:10 22.86 22.94 22.91 22.97 22.93 23.10
8/22/2018 20:00 to 19:10 22.81 23.01 22.81 22.80 22.98 22.86
8/22/2018 19:00 to 18:10 22.77 22.79 22.73 22.79 22.71 22.73
8/22/2018 18:00 to 17:10 22.96 22.89 22.82 22.83 22.97 22.88
8/22/2018 17:00 to 16:10 22.86 22.99 23.01 22.92 23.04 22.99
8/22/2018 16:00 to 15:10 22.92 23.00 23.12 23.07 23.10 23.19
8/22/2018 15:00 to 14:10 23.06 23.03 23.09 23.08 23.09 22.99
8/22/2018 14:00 to 13:10 23.04 23.05 22.98 22.97 22.96 23.00
8/22/2018 13:00 to 12:10 22.92 22.90 22.97 22.99 23.07 22.83
8/22/2018 12:00 to 11:10 22.87 22.82 22.84 22.82 22.58 22.77
8/22/2018 11:00 to 10:10 22.68 22.69 22.70 22.58 22.63 22.60
8/22/2018 10:00 to 9:10 22.59 22.51 22.72 22.63 22.64 22.57
8/22/2018 09:00 to 8:10 22.52 22.40 22.23 22.27 22.12 21.92
8/22/2018 08:00 to 7:10 21.86 21.84 22.06 22.19 22.38 22.51
8/22/2018 07:00 to 6:10 22.73 22.76 22.74 22.98 22.80 22.75
8/22/2018 06:00 to 5:10 22.85 22.97 22.75 22.73 22.84 22.79
8/22/2018 05:00 to 4:10 22.85 22.93 22.97 23.02 22.96 23.05
8/22/2018 04:00 to 3:10 23.04 22.95 23.11 23.20 23.28 23.28
8/22/2018 03:00 to 2:10 23.17 23.18 23.36 23.42 23.36 23.14
8/22/2018 02:00 to 1:10 23.25 23.27 23.22 23.16 23.09 23.30
8/22/2018 01:00 to 0:10 23.21 23.36 23.26 23.23 23.22 23.21
8/22/2018 00:00 to 23:10 22.97 23.09 23.12 23.14 23.03 23.06
8/21/2018 23:00 to 22:10 23.17 23.17 23.06 23.24 23.20 23.25
8/21/2018 22:00 to 21:10 23.27 23.38 23.29 23.39 23.37 23.32
8/21/2018 21:00 to 20:10 23.27 23.39 23.34 23.30 23.15 23.31
8/21/2018 20:00 to 19:10 23.39 23.33 23.28 23.18 23.16 23.14
8/21/2018 19:00 to 18:10 23.26 22.96 23.23 23.06 23.40 23.26
8/21/2018 18:00 to 17:10 23.10 23.39 23.25 23.30 23.13 23.13
8/21/2018 17:00 to 16:10 22.95 23.07 22.96 22.80 22.65 22.74
8/21/2018 16:00 to 15:10 22.79 22.68 22.80 22.81 22.87 23.06
8/21/2018 15:00 to 14:10 22.90 23.11 23.31 23.15 23.13 23.15
8/21/2018 14:00 to 13:10 23.07 23.05 22.95 22.85 22.82 22.76
8/21/2018 13:00 to 12:10 22.67 22.90 22.62 22.37 22.18 22.30
8/21/2018 12:00 to 11:10 22.41 22.28 22.41 22.68 22.81 22.62
8/21/2018 11:00 to 10:10 22.74 22.63 22.51 22.63 23.01 23.12
8/21/2018 10:00 to 9:10 23.15 23.29 23.36 23.64 23.42 23.47
8/21/2018 09:00 to 8:10 23.41 23.38 23.51 23.65 23.55 23.40
8/21/2018 08:00 to 7:10 23.56 23.47 23.48 23.62 23.62 23.39
8/21/2018 07:00 to 6:10 23.46 23.43 23.37 23.46 23.47 23.57
8/21/2018 06:00 to 5:10 23.47 23.45 23.45 23.50 23.47 23.50
8/21/2018 05:00 to 4:10 23.47 23.56 23.64 23.52 23.48 23.60
8/21/2018 04:00 to 3:10 23.45 23.51 23.56 23.49 23.56 23.45
8/21/2018 03:00 to 2:10 23.39 23.34 23.48 23.57 23.35 23.40
8/21/2018 02:00 to 1:10 23.53 23.56 23.40 23.43 23.38 23.24
8/21/2018 01:00 to 0:10 23.27 23.32 23.25 23.24 23.32 23.32
8/21/2018 00:00 to 23:10 23.39 23.53 23.57 23.61 23.67 23.61
8/20/2018 23:00 to 22:10 23.63 23.62 23.57 23.57 23.64 23.51
8/20/2018 22:00 to 21:10 23.61 23.60 23.51 23.61 23.53 23.64
8/20/2018 21:00 to 20:10 23.76 23.61 23.75 23.79 23.80 23.79
8/20/2018 20:00 to 19:10 23.79 23.74 23.89 23.78 23.82 23.80
8/20/2018 19:00 to 18:10 23.76 23.99 23.83 24.02 23.75 23.89
8/20/2018 18:00 to 17:10 23.81 23.78 23.68 23.74 23.75 23.82
8/20/2018 17:00 to 16:10 23.83 23.74 23.80 23.76 23.74 23.69
8/20/2018 16:00 to 15:10 23.64 23.73 23.59 23.57 23.51 23.39
8/20/2018 15:00 to 14:10 23.46 23.41 23.43 23.37 23.30 23.29
8/20/2018 14:00 to 13:10 23.17 23.09 23.30 23.26 23.33 23.23
8/20/2018 13:00 to 12:10 23.47 23.38 23.62 23.73 23.68 23.78
8/20/2018 12:00 to 11:10 23.71 23.77 23.60 23.68 23.76 23.68
8/20/2018 11:00 to 10:10 23.56 23.59 23.57 23.56 23.51 23.50
8/20/2018 10:00 to 9:10 23.59 23.52 23.41 23.63 23.57 23.73
8/20/2018 09:00 to 8:10 23.54 23.52 23.70 23.64 23.75 23.59
8/20/2018 08:00 to 7:10 23.72 23.87 23.79 23.85 23.79 23.88
8/20/2018 07:00 to 6:10 23.80 23.85 23.76 23.72 23.73 23.86
8/20/2018 06:00 to 5:10 23.89 24.02 23.90 24.00 24.05 23.95
8/20/2018 05:00 to 4:10 23.81 23.75 23.76 23.70 23.60 23.35
8/20/2018 04:00 to 3:10 23.62 23.68 23.73 23.59 23.60 23.84
8/20/2018 03:00 to 2:10 23.97 23.93 23.75 23.81 23.89 23.87
8/20/2018 02:00 to 1:10 23.95 23.85 23.76 23.77 23.87 23.92
8/20/2018 01:00 to 0:10 24.05 23.90 24.15 24.03 24.07 24.17